Yakima, WA
on Friday, December 28, 2012

Friday
Previous Day Next Day
Daily Summary
 ActualAverageRecord
Temperature
Mean Temperature °F 28°F  
Max Temperature 30°F 35°F 57°F (1949)
Min Temperature 24°F 21°F -7°F (1996)
Degree Days
Heating Degree Days 38 37  
Month to date heating degree days 860 1017  
Since 1 July heating degree days 2098 2550  
Cooling Degree Days 0 0  
Month to date cooling degree days 0 0  
Year to date cooling degree days 667 472  
Moisture
Dew Point 25°F   
Average Humidity 88    
Maximum Humidity 92    
Minimum Humidity 84    
Precipitation
Precipitation 0.00 in 0.05 in 0.41 in (2005)
Month to date precipitation 2.04 1.40  
Year to date precipitation 9.23 8.12  
Snow
Snow 0.00 in 0.30 in 3.80 in (1971)
Month to date snowfall 12.0 8.6  
Year to date snowfall 34.2 20.8  
Since 1 July snowfall 12.7 12.2  
Snow Depth 0.00 in   
Wind
Wind Speed 4 mph   
Max Wind Speed 8 mph   
Max Gust Speed 15 mph   
Visibility 4 miles   
Events Fog   

Key: T is trace of precipitation, MM is missing value
Source: NWS Daily Summary
Time(PST)TemperatureDew PointHumidity Pressure Visibility Wind DirectionWind SpeedGust SpeedPrecipitationEvents Conditions
12:53 AM 26.1°F 24.1°F 92% 30.23 in 2.0 miles WSW 5.8 mph - N/A   Overcast
1:21 AM 26.6°F 24.8°F 93% 30.19 in 1.2 miles West 5.8 mph - N/A   Overcast
1:36 AM 26.6°F 24.8°F 93% 30.19 in 0.8 miles WNW 6.9 mph - N/A   Overcast
1:53 AM 26.1°F 23.0°F 88% 30.23 in 0.8 miles West 8.1 mph - N/A   Mist
2:53 AM 24.8°F 21.2°F 86% 30.20 in 0.5 miles WNW 3.5 mph - N/A Fog Light Freezing Fog
3:28 AM 24.8°F 21.2°F 86% 30.20 in 1.0 miles WSW 6.9 mph - N/A   Overcast
3:36 AM 24.8°F 21.2°F 86% 30.20 in 0.8 miles West 3.5 mph - N/A   Mist
3:53 AM 25.0°F 23.0°F 92% 30.24 in 0.5 miles West 3.5 mph - N/A Fog Light Freezing Fog
4:18 AM 24.8°F 23.0°F 93% 30.19 in 0.2 miles West 4.6 mph - N/A Fog Light Freezing Fog
4:44 AM 24.8°F 23.0°F 93% 30.19 in 0.5 miles WSW 5.8 mph - N/A Fog Light Freezing Fog
4:53 AM 25.0°F 21.9°F 88% 30.23 in 0.5 miles WSW 4.6 mph - N/A Fog Light Freezing Fog
5:53 AM 25.0°F 21.9°F 88% 30.24 in 0.5 miles WSW 3.5 mph - N/A Fog Light Freezing Fog
6:53 AM 25.0°F 21.9°F 88% 30.25 in 0.5 miles WSW 4.6 mph - N/A Fog Light Freezing Fog
7:53 AM 24.1°F 21.0°F 88% 30.25 in 0.5 miles West 5.8 mph - N/A Fog Light Freezing Fog
8:06 AM 24.8°F 21.2°F 86% 30.21 in 0.2 miles WSW 5.8 mph - N/A Fog Light Freezing Fog
8:53 AM 25.0°F 21.9°F 88% 30.27 in 0.2 miles WSW 6.9 mph - N/A Fog Light Freezing Fog
9:24 AM 26.6°F 23.0°F 86% 30.23 in 0.5 miles WSW 6.9 mph - N/A Fog Light Freezing Fog
9:39 AM 26.6°F 23.0°F 86% 30.23 in 1.0 miles WSW 5.8 mph - N/A   Overcast
9:53 AM 26.1°F 24.1°F 92% 30.28 in 1.2 miles West 5.8 mph - N/A   Overcast
10:53 AM 27.0°F 24.1°F 89% 30.27 in 1.5 miles West 4.6 mph - N/A   Overcast
11:14 AM 26.6°F 24.8°F 93% 30.22 in 2.5 miles WSW 5.8 mph - N/A   Overcast
11:22 AM 26.6°F 24.8°F 93% 30.22 in 3.0 miles WSW 5.8 mph - N/A   Overcast
11:46 AM 26.6°F 24.8°F 93% 30.22 in 3.0 miles WSW 5.8 mph - N/A   Overcast
11:53 AM 27.0°F 24.1°F 89% 30.26 in 6.0 miles WSW 5.8 mph - N/A   Overcast
12:53 PM 28.0°F 25.0°F 88% 30.25 in 7.0 miles West 5.8 mph - N/A   Overcast
1:53 PM 28.9°F 26.1°F 89% 30.25 in 7.0 miles West 3.5 mph - N/A   Overcast
2:53 PM 30.0°F 27.0°F 88% 30.25 in 8.0 miles WSW 3.5 mph - N/A   Overcast
3:53 PM 30.0°F 26.1°F 85% 30.26 in 7.0 miles WSW 5.8 mph - N/A   Overcast
4:53 PM 30.0°F 26.1°F 85% 30.27 in 7.0 miles WSW 5.8 mph - N/A   Overcast
5:53 PM 28.9°F 26.1°F 89% 30.27 in 8.0 miles WSW 5.8 mph - N/A   Overcast
6:53 PM 30.0°F 26.1°F 85% 30.28 in 7.0 miles WSW 4.6 mph - N/A   Overcast
7:53 PM 30.0°F 27.0°F 88% 30.28 in 8.0 miles Calm Calm - N/A   Overcast
8:14 PM 30.2°F 26.6°F 86% 30.23 in 7.0 miles Calm Calm - N/A   Overcast
8:38 PM 30.2°F 28.4°F 93% 30.23 in 10.0 miles Calm Calm - N/A   Overcast
8:53 PM 30.2°F 26.6°F 86% 30.23 in 10.0 miles Calm Calm - N/A   Overcast
9:00 PM 30.2°F 26.6°F 86% 30.23 in 10.0 miles Calm Calm - N/A   Overcast
9:40 PM 30.2°F 26.6°F 86% 30.23 in 10.0 miles WNW 3.5 mph - N/A   Overcast
9:53 PM 30.0°F 27.0°F 88% 30.28 in 10.0 miles Calm Calm - N/A   Overcast
10:38 PM 30.2°F 26.6°F 86% 30.24 in 10.0 miles Calm Calm - N/A   Overcast
10:46 PM 30.2°F 26.6°F 86% 30.24 in 10.0 miles Calm Calm - N/A   Overcast
10:53 PM 30.0°F 26.1°F 85% 30.28 in 10.0 miles Calm Calm - N/A   Overcast
11:46 PM 30.2°F 26.6°F 86% 30.24 in 8.0 miles SW 3.5 mph - N/A   Overcast
11:53 PM 30.0°F 27.0°F 88% 30.28 in 8.0 miles Calm Calm - N/A   Overcast
Moon Phase
Dec. 28 Jan. 04 Jan. 11 Jan. 18 Jan. 26
Sunrise:07:45 AM (PST) Moon Rise:05:07 PM (PST)12/28
Sunset:04:22 PM (PST) Moon Set:07:40 AM (PST)12/28

Copyright © 2014 The Weather Underground, Inc.